When you browse on this site, cookies collect data to enhance your experience and personalize the content and advertising you see.
Visit our Privacy Policy to learn more. By continuing to use the site, you agree to this use of cookies and data.

Hourly Weather Prutz

Today, 4 August, Tuesday

Time Temperature Precipitation Wind Pressure Humidity
00:00 +8°C° 2.6 mm 2 mps 628 mmHg 97%
01:00 +8°C° 0 mm 2 mps 628 mmHg 98%
02:00 +8°C° 2.9 mm 2 mps 628 mmHg 98%
03:00 +7°C° 2.9 mm 2 mps 628 mmHg 98%
04:00 +7°C° 2.9 mm 2 mps 628 mmHg 97%
05:00 +7°C° 2.5 mm 2 mps 628 mmHg 98%
06:00 +7°C° 2.5 mm 2 mps 628 mmHg 98%
07:00 +7°C° 2.5 mm 2 mps 628 mmHg 98%
08:00 +7°C° 1 mm 2 mps 629 mmHg 97%
09:00 +7°C° 1 mm 2 mps 630 mmHg 97%
10:00 +7°C° 1 mm 2 mps 630 mmHg 96%
11:00 +7°C° 0.9 mm 2 mps 630 mmHg 96%
12:00 +7°C° 0.9 mm 2 mps 631 mmHg 96%
13:00 +7°C° 0.9 mm 2 mps 631 mmHg 96%
14:00 +7°C° 0.3 mm 2 mps 631 mmHg 95%
15:00 +7°C° 0.3 mm 2 mps 631 mmHg 95%
16:00 +7°C° 0.3 mm 2 mps 632 mmHg 94%
17:00 +7°C° 0.1 mm 2 mps 632 mmHg 95%
18:00 +7°C° 0.1 mm 2 mps 632 mmHg 95%
19:00 +7°C° 0.1 mm 2 mps 632 mmHg 95%
20:00 +8°C° 0 mm 1 mps 632 mmHg 96%
21:00 +8°C° 0 mm 1 mps 633 mmHg 96%
22:00 +8°C° 0 mm 1 mps 633 mmHg 97%
23:00 +7°C° 0 mm 1 mps 633 mmHg 97%

Tomorrow, 5 August, Wednesday

Time Temperature Precipitation Wind Pressure Humidity
00:00 +7°C° 0 mm 1 mps 633 mmHg 97%
01:00 +7°C° 0 mm 1 mps 632 mmHg 97%
02:00 +6°C° 0 mm 1 mps 632 mmHg 96%
03:00 +6°C° 0 mm 1 mps 632 mmHg 96%
04:00 +6°C° 0 mm 1 mps 632 mmHg 96%
05:00 +7°C° 0 mm 1 mps 633 mmHg 95%
06:00 +8°C° 0 mm 1 mps 633 mmHg 93%
07:00 +9°C° 0 mm 1 mps 633 mmHg 91%
08:00 +10°C° 0 mm 1 mps 634 mmHg 84%
09:00 +12°C° 0 mm 1 mps 635 mmHg 77%
10:00 +14°C° 0 mm 1 mps 635 mmHg 70%
11:00 +15°C° 0 mm 1 mps 635 mmHg 65%
12:00 +18°C° 0 mm 1 mps 636 mmHg 59%
13:00 +19°C° 0 mm 1 mps 636 mmHg 53%
14:00 +20°C° 0 mm 1 mps 636 mmHg 54%
15:00 +19°C° 0 mm 2 mps 636 mmHg 54%
16:00 +19°C° 0 mm 2 mps 636 mmHg 54%
17:00 +18°C° 0 mm 2 mps 636 mmHg 64%
18:00 +16°C° 0 mm 2 mps 635 mmHg 73%
19:00 +15°C° 0 mm 1 mps 635 mmHg 82%
20:00 +13°C° 0 mm 1 mps 635 mmHg 87%
21:00 +11°C° 0 mm 1 mps 635 mmHg 92%
22:00 +8°C° 0 mm 0 mps 634 mmHg 96%
23:00 +9°C° 0 mm 1 mps 634 mmHg 95%

Day after tomorrow, 6 August, Thursday

Time Temperature Precipitation Wind Pressure Humidity
00:00 +9°C° 0 mm 1 mps 634 mmHg 94%
01:00 +9°C° 0 mm 1 mps 634 mmHg 92%
02:00 +9°C° 0 mm 1 mps 634 mmHg 91%
03:00 +9°C° 0 mm 1 mps 634 mmHg 90%
04:00 +9°C° 0 mm 1 mps 634 mmHg 89%
05:00 +11°C° 0 mm 1 mps 635 mmHg 84%
06:00 +13°C° 0 mm 1 mps 636 mmHg 79%
07:00 +14°C° 0 mm 0 mps 637 mmHg 74%
08:00 +18°C° 0 mm 1 mps 637 mmHg 66%
09:00 +20°C° 0 mm 1 mps 638 mmHg 58%
10:00 +22°C° 0 mm 1 mps 639 mmHg 50%
11:00 +23°C° 0 mm 1 mps 639 mmHg 48%
12:00 +24°C° 0 mm 1 mps 639 mmHg 45%
13:00 +25°C° 0 mm 1 mps 639 mmHg 43%
14:00 +24°C° 0 mm 2 mps 639 mmHg 47%
15:00 +24°C° 0 mm 2 mps 639 mmHg 50%
16:00 +24°C° 0 mm 2 mps 639 mmHg 53%
17:00 +21°C° 0.1 mm 2 mps 639 mmHg 65%
18:00 +19°C° 0.1 mm 2 mps 638 mmHg 76%
19:00 +18°C° 0.1 mm 1 mps 638 mmHg 87%
20:00 +16°C° 0 mm 1 mps 638 mmHg 90%
21:00 +14°C° 0 mm 1 mps 637 mmHg 93%
22:00 +11°C° 0 mm 0 mps 637 mmHg 96%
23:00 +11°C° 0 mm 0 mps 637 mmHg 96%

7 August, Friday

Time Temperature Precipitation Wind Pressure Humidity
00:00 +12°C° 0 mm 1 mps 637 mmHg 95%
01:00 +12°C° 0 mm 1 mps 637 mmHg 95%
02:00 +12°C° 0 mm 1 mps 637 mmHg 94%
03:00 +11°C° 0 mm 1 mps 637 mmHg 94%
04:00 +11°C° 0 mm 1 mps 637 mmHg 94%
05:00 +12°C° 0 mm 0 mps 637 mmHg 90%
06:00 +14°C° 0 mm 0 mps 638 mmHg 86%
07:00 +16°C° 0 mm 0 mps 639 mmHg 82%
08:00 +18°C° 0 mm 0 mps 640 mmHg 71%
09:00 +22°C° 0 mm 1 mps 640 mmHg 61%
10:00 +24°C° 0 mm 1 mps 641 mmHg 50%
11:00 +24°C° 0 mm 1 mps 641 mmHg 46%
12:00 +25°C° 0 mm 1 mps 641 mmHg 42%
13:00 +26°C° 0 mm 2 mps 641 mmHg 38%
14:00 +26°C° 0.1 mm 2 mps 641 mmHg 42%
15:00 +25°C° 0.1 mm 2 mps 641 mmHg 45%
16:00 +25°C° 0.1 mm 2 mps 641 mmHg 48%
17:00 +23°C° 0.3 mm 2 mps 640 mmHg 61%
18:00 +21°C° 0.3 mm 1 mps 640 mmHg 73%
19:00 +19°C° 0.3 mm 1 mps 639 mmHg 85%
20:00 +18°C° 0.1 mm 1 mps 639 mmHg 88%
21:00 +14°C° 0.1 mm 0 mps 638 mmHg 91%
22:00 +12°C° 0.1 mm 0 mps 638 mmHg 94%
23:00 +12°C° 0 mm 0 mps 638 mmHg 93%

8 August, Saturday

Time Temperature Precipitation Wind Pressure Humidity
00:00 +13°C° 0 mm 1 mps 638 mmHg 93%
01:00 +13°C° 0 mm 1 mps 638 mmHg 92%
02:00 +12°C° 0 mm 1 mps 637 mmHg 92%
03:00 +12°C° 0 mm 1 mps 637 mmHg 92%
04:00 +11°C° 0 mm 0 mps 637 mmHg 91%
05:00 +12°C° 0 mm 0 mps 637 mmHg 86%
06:00 +14°C° 0 mm 0 mps 638 mmHg 82%
07:00 +16°C° 0 mm 0 mps 639 mmHg 77%
08:00 +20°C° 0 mm 1 mps 639 mmHg 66%
09:00 +22°C° 0 mm 1 mps 640 mmHg 56%
10:00 +24°C° 0 mm 1 mps 640 mmHg 46%
11:00 +24°C° 0 mm 2 mps 640 mmHg 42%
12:00 +25°C° 0 mm 2 mps 640 mmHg 39%
13:00 +26°C° 0 mm 2 mps 640 mmHg 36%
14:00 +26°C° 0 mm 2 mps 640 mmHg 38%
15:00 +25°C° 0 mm 3 mps 640 mmHg 40%
16:00 +25°C° 0 mm 3 mps 639 mmHg 42%
17:00 +23°C° 0.2 mm 2 mps 639 mmHg 54%
18:00 +20°C° 0.2 mm 2 mps 638 mmHg 66%
19:00 +19°C° 0.2 mm 1 mps 638 mmHg 78%
20:00 +18°C° 0.1 mm 1 mps 637 mmHg 83%
21:00 +15°C° 0.1 mm 1 mps 637 mmHg 87%
22:00 +12°C° 0.1 mm 0 mps 637 mmHg 91%
23:00 +13°C° 0 mm 1 mps 636 mmHg 91%

9 August, Sunday

Time Temperature Precipitation Wind Pressure Humidity
00:00 +12°C° 0 mm 1 mps 636 mmHg 91%
01:00 +12°C° 0 mm 1 mps 636 mmHg 92%
02:00 +12°C° 0 mm 1 mps 635 mmHg 91%
03:00 +12°C° 0 mm 1 mps 635 mmHg 91%
04:00 +11°C° 0 mm 1 mps 635 mmHg 90%
05:00 +12°C° 0 mm 0 mps 636 mmHg 85%
06:00 +14°C° 0 mm 0 mps 636 mmHg 79%
07:00 +15°C° 0 mm 0 mps 637 mmHg 74%
08:00 +19°C° 0 mm 1 mps 637 mmHg 65%
09:00 +21°C° 0 mm 1 mps 638 mmHg 56%
10:00 +23°C° 0 mm 1 mps 638 mmHg 47%
11:00 +23°C° 0 mm 2 mps 638 mmHg 45%
12:00 +24°C° 0 mm 2 mps 638 mmHg 43%
13:00 +25°C° 0 mm 2 mps 638 mmHg 40%
14:00 +24°C° 0.2 mm 2 mps 638 mmHg 45%
15:00 +24°C° 0.2 mm 2 mps 637 mmHg 49%
16:00 +22°C° 0.2 mm 3 mps 637 mmHg 54%
17:00 +21°C° 0.7 mm 2 mps 636 mmHg 64%
18:00 +19°C° 0.7 mm 2 mps 636 mmHg 74%
19:00 +18°C° 0.7 mm 1 mps 635 mmHg 85%
20:00 +16°C° 0.1 mm 1 mps 635 mmHg 87%
21:00 +14°C° 0.1 mm 1 mps 635 mmHg 88%
22:00 +12°C° 0.1 mm 0 mps 634 mmHg 90%
23:00 +12°C° 0 mm 0 mps 634 mmHg 90%
Show more